STARLINK-35936, 66620

Orbit data source: Space-Track

STARLINK-35936, 66620 is a payload satellite owned by SpaceX/Seattle (US) in LEO that was launched on Sun, 23 Nov 2025 UTC via an FALCON 9 launch vehicle from the Air Force Western Test Range (AFWTR). Payload-class satellites include a variety of spacecraft equipped with specific instruments for various scientific and technological missions. These include communications satellites like Starlink; space stations such as the ISS; scientific satellites like the Hubble; Earth observation satellites from companies like Planet Labs, Umbra, and HawkEye 360; GPS; miniature CubeSats for education and research; and military/defense satellites.

Loading next visibility...
Identifier
66620, 2025-271D
Orbit
LEO
Country
Flag of USUS
Related business
Manufacturer
SpaceX/Seattle
Mission
Operational Commercial Communications
Bus & Motor
STARLINK V2MO, Unknown motor
Mass
575 kg wet, ~530 kg dry
Launch date (UTC)
2025-11-23 (2 months ago)
Launch vehicle
FALCON 9
Launch site
Air Force Western Test Range (AFWTR)
Object type
Payload
Rocket body
Debris
Shape & HBR
Box + 2 Pan, 17.7 m
Radar Cross Section
36.964 m²

Expand to show TLE details & history
Last TLE update: 5 hours ago

TLE from 5 hours ago
0 STARLINK-35936
1 66620U 25271D   26037.08438755  .00018752  00000-0  64444-3 0  9993
2 66620  53.1584 287.0354 0001046  83.3256 276.7864 15.30160804 12725
Epoch: 2026-02-06T02:01Z
TLE epoch observation values (Epoch: 2026-02-06T02:01:31.084Z)
Latitude
0.00001°
Longitude
120.42855°
Altitude
476.147 km
Speed
7.629 km/s
True Right ascension
19h 08m 08s
True Declination
0° 00' 00"
Sunlit
Object was in daylight at epoch
Visualization orbit readout
Latitude
Unknown
Longitude
Unknown
Altitude
Unknown
Speed
Unknown
Apparent Right ascension
Unknown
Apparent Declination
Unknown
Sunlit
N/A
Visualization observer readout
Local Sidereal Time
09:06:26
Azimuth
Unknown
Elevation
Unknown
Doppler factor
Unknown
Orbital elements
Apogee altitude
476.306 km
Perigee altitude
474.872 km
Semi-major axis
6,853.726 km
Eccentricity
0.0001
Inclination
53.1584°
RAAN
287.0354°
Arg. of periapsis
83.3256°
True anomaly
276.7745°
Mean anomaly
276.7864°
Eccentric anomaly
276.78045°
Mean motion
3.82519 °/min
Orbital period
94.11 mins
BSTAR
0.00064444
Loading maneuver chart data...
Computing Atmospheric mass density...
Loading historical data...
Loading historical data...
Loading historical data...
Loading historical data...
Loading historical data...
Loading historical data...
Loading historical data...

Documentation

Showing up to 5 results
|